Tracking 19817 objects as of 20-Aug-2019
HD Live streaming from Space Station
objects crossing your sky now

FENGYUN 1C DEB

Track FENGYUN 1C DEB now!
10-day predictions


NORAD ID: 36159
Int'l Code: 1999-025DSG
Perigee: 467.7 km
Apogee: 834.0 km
Inclination: 99.5 °
Period: 97.6 minutes
Semi major axis: 7021 km
RCS: 0.0089 m2 (small)
Launch date: May 10, 1999
Source: People's Republic of China (PRC)
Launch site: Taiyaun Space Center, China (TSC)

Note: This is SATELLITE DEBRIS
aabbcc
Your satellite tracking list
Your tracking list is empty




NASA's NSSDC Master Catalog

Two Line Element Set (TLE):
1 36159U 99025DSG 19231.04787417 +.00000650 +00000-0 +63547-4 0  9993
2 36159 099.4938 174.8894 0260818 303.1856 054.4579 14.75441383347468
Source of the keplerian elements: AFSPC